Location: Antin
(43.3330°N, 0.2804°E)
Time: 17:53:32
(UTC+00:00)

SME Rocket - Pass Details

Date: 11 December 2023
Orbit: 550 x 2645 km, 99.9° (Epoch: 20 February)

Event Time Altitude Azimuth Distance (km) Brightness Sun altitude
Rises 17:09:37 0° 117° (ESE) 3,709 6.7 -8.3°
Reaches altitude 10° 17:12:05 10° 105° (ESE) 2,999 6.1 -8.7°
Maximum altitude 17:17:53 29° 49° (NE) 2,411 5.5 -9.7°
Drops below altitude 10° 17:25:53 10° 357° (N) 4,269 7.1 -11.1°
Sets 17:30:07 0° 348° (NNW) 5,590 7.8 -11.8°
